Content
SEND FEEDBACK

Daily
Averages
Monthly
Summary
United States of America

FULLERTON, NORTH DAKOTA


Home > North America > United States > North Dakota
Elevation: 1408 feet     Latitude: 46 09N     Longitude: 098 24W

WEATHER
 
SELECT A DAY
Number of Records: 81,424;   Date Range: 5/13/11 - 12/18/14
 
SHARE

PRINT THIS DATA

[ ← Previous Day ]
WEATHER ALMANAC - JANUARY 31, 2013
[ Next Day → ]
[ °C ]   °F
Weather ElementAverageHighLow
Temperature-11.9 °F (12:35 am)-18.4 °F (11:35 pm)
Dewpoint-18.9 °F (12:35 am)-25.6 °F (11:55 pm)
Humidity70.2 %77 % (2:15 am)64 % (10:55 am)
Barometer30.18 in30.29 in (7:35 pm)29.94 in (12:35 am)
Wind Speed16.5 mph24.2 mph (6:55 am)
Wind Gust31.1 mph (6:15 am)
Weather ElementAverage
Visibility9 mi
Wind DirectionWNW (299 °)

Weather ElementTotal
Precipitation---
Heating Degree Days74.2 (Base 65)
Averaged from 69 records on January 31, 2013
WEATHER CONDITIONS BREAKOUT
WIND DIRECTION BREAKOUT
WEATHER BY HOUR - JANUARY 31, 2013
[ °C ]   °F
Local TimeTemperatureDewpointHumidityBarometerVisibilityWind DirectionWind SpeedGust SpeedPrecipitationEventsConditions
12:35 AM0.0 °F0.0 °F29.94 in10.0 miNNW (330°)17.3 mph
12:55 AM-11.2 °F-18.4 °F70 %29.96 in10.0 miNW (310°)16.1 mph20.7 mph
1:15 AM0.0 °F0.0 °F29.96 in10.0 miNW (310°)20.7 mph25.3 mph
1:35 AM-11.2 °F-18.4 °F70 %29.97 in10.0 miNW (310°)17.3 mph27.6 mph
1:55 AM-11.2 °F-18.4 °F70 %29.98 in10.0 miNW (310°)17.3 mph23.0 mph
2:15 AM-13.0 °F-18.4 °F77 %29.99 in9.0 miNW (310°)19.6 mph24.2 mph
2:35 AM-13.0 °F-20.2 °F70 %29.99 in10.0 miNW (310°)19.6 mph24.2 mph
2:55 AM-13.0 °F-20.2 °F70 %30.00 in10.0 miNW (310°)17.3 mph27.6 mph
3:15 AM-13.0 °F-20.2 °F70 %30.00 in10.0 miNW (310°)19.6 mph26.5 mph
3:35 AM-13.0 °F-20.2 °F70 %30.01 in10.0 miNW (310°)19.6 mph
3:55 AM-13.0 °F-20.2 °F70 %30.02 in10.0 miNW (310°)17.3 mph
4:15 AM-14.8 °F-20.2 °F77 %30.02 in10.0 miWNW (300°)17.3 mph25.3 mph
4:35 AM-14.8 °F-22.0 °F70 %30.03 in10.0 miWNW (300°)18.4 mph24.2 mph
4:55 AM-13.0 °F-20.2 °F70 %30.04 in10.0 miNW (310°)18.4 mph
5:15 AM-13.0 °F-20.2 °F70 %30.06 in10.0 miNW (310°)18.4 mph23.0 mphSnowLight Snow
5:35 AM-13.0 °F-20.2 °F70 %30.06 in10.0 miNW (310°)20.7 mph26.5 mphSnowLight Snow
5:55 AM-13.0 °F-20.2 °F70 %30.07 in5.0 miNW (320°)21.9 mph29.9 mphSnowLight Snow
6:15 AM-13.0 °F-20.2 °F70 %30.07 in5.0 miNW (320°)20.7 mph31.1 mphHaze
6:35 AM-13.0 °F-20.2 °F70 %30.09 in9.0 miNW (320°)21.9 mph27.6 mph
6:55 AM-13.0 °F-20.2 °F70 %30.10 in9.0 miNW (320°)24.2 mph
7:15 AM-13.0 °F-20.2 °F70 %30.11 in5.0 miNW (310°)21.9 mph31.1 mphHaze
7:35 AM-13.0 °F-20.2 °F70 %30.13 in10.0 miNW (310°)19.6 mphClear
7:55 AM-13.0 °F-20.2 °F70 %30.14 in10.0 miNW (310°)20.7 mph27.6 mph
8:15 AM-13.0 °F-20.2 °F70 %30.16 in6.0 miNW (310°)20.7 mph29.9 mphHaze
8:35 AM-14.8 °F-20.2 °F77 %30.16 in4.0 miNW (310°)23.0 mph29.9 mphHaze
8:55 AM-14.8 °F-20.2 °F77 %30.18 in8.0 miNW (310°)19.6 mph27.6 mphClear
9:15 AM-13.0 °F-20.2 °F70 %30.19 in8.0 miNW (310°)19.6 mphClear
9:35 AM-13.0 °F-20.2 °F70 %30.20 in8.0 miNW (310°)20.7 mph28.8 mph
9:55 AM-13.0 °F-20.2 °F70 %30.21 in5.0 miNW (310°)19.6 mph28.8 mphHaze
10:15 AM-13.0 °F-20.2 °F70 %30.22 in5.0 miNW (310°)20.7 mph29.9 mphHaze
10:35 AM-13.0 °F-20.2 °F70 %30.23 in7.0 miNW (310°)23.0 mph29.9 mphRainLight Rain
10:55 AM-11.2 °F-20.2 °F64 %30.24 in8.0 miNW (310°)19.6 mph27.6 mph
11:15 AM-11.2 °F-20.2 °F64 %30.24 in10.0 miNW (310°)18.4 mph25.3 mph
11:35 AM-11.2 °F-18.4 °F70 %30.25 in10.0 miNW (310°)21.9 mph
11:55 AM-11.2 °F-18.4 °F70 %30.25 in8.0 miNW (310°)21.9 mph27.6 mphPartly Cloudy
12:15 PM-9.4 °F-18.4 °F65 %30.25 in9.0 miNW (320°)19.6 mph27.6 mph
12:35 PM-9.4 °F-16.6 °F71 %30.25 in9.0 miNW (310°)19.6 mph24.2 mph
12:55 PM-9.4 °F-16.6 °F71 %30.25 in8.0 miWNW (300°)21.9 mph27.6 mph
1:15 PM-9.4 °F-16.6 °F71 %30.25 in8.0 miNW (310°)23.0 mph29.9 mphScattered Clouds
1:35 PM-9.4 °F-16.6 °F71 %30.26 in7.0 miNW (310°)18.4 mph27.6 mph
1:55 PM-9.4 °F-16.6 °F71 %30.25 in7.0 miNW (310°)20.7 mph29.9 mph
2:15 PM-7.6 °F-16.6 °F65 %30.25 in8.0 miNW (320°)20.7 mph26.5 mph
2:35 PM-7.6 °F-16.6 °F65 %30.25 in8.0 miNW (310°)17.3 mph28.8 mph
2:55 PM-7.6 °F-16.6 °F65 %30.25 in8.0 miNW (310°)18.4 mphOvercast
3:15 PM-7.6 °F-16.6 °F65 %30.26 in9.0 miWNW (300°)19.6 mph25.3 mph
3:35 PM-7.6 °F-16.6 °F65 %30.27 in10.0 miNW (310°)18.4 mph25.3 mph
3:55 PM-7.6 °F-16.6 °F65 %30.27 in10.0 miNW (310°)19.6 mph23.0 mph
4:15 PM-7.6 °F-16.6 °F65 %30.27 in10.0 miNW (310°)17.3 mph23.0 mph
4:35 PM-7.6 °F-16.6 °F65 %30.27 in10.0 miWNW (300°)15.0 mphPartly Cloudy
4:55 PM-7.6 °F-16.6 °F65 %30.27 in10.0 miNW (310°)13.8 mph
5:15 PM-9.4 °F-16.6 °F71 %30.28 in10.0 miWNW (300°)13.8 mph17.3 mph
5:35 PM-9.4 °F-16.6 °F71 %30.28 in10.0 miWNW (300°)11.5 mph
5:55 PM-9.4 °F-18.4 °F65 %30.28 in10.0 miWNW (290°)11.5 mph
6:15 PM-11.2 °F-18.4 °F70 %30.28 in10.0 miWNW (290°)11.5 mphClear
6:35 PM-11.2 °F-18.4 °F70 %30.28 in10.0 miWNW (290°)10.4 mph
7:15 PM-13.0 °F-20.2 °F70 %30.28 in10.0 miWest (280°)9.2 mph
7:35 PM-13.0 °F-20.2 °F70 %30.29 in10.0 miWNW (290°)11.5 mph
8:15 PM-13.0 °F-20.2 °F70 %30.29 in10.0 miWNW (300°)12.7 mph
8:35 PM-13.0 °F-20.2 °F70 %30.29 in10.0 miWNW (290°)8.1 mph
8:55 PM-14.8 °F-22.0 °F70 %30.29 in10.0 miWNW (290°)9.2 mph
9:15 PM-16.6 °F-22.0 °F76 %30.29 in10.0 miWest (280°)5.8 mphClear
9:35 PM-16.6 °F-22.0 °F76 %30.28 in10.0 miWNW (290°)5.8 mph
9:55 PM-16.6 °F-22.0 °F76 %30.28 in10.0 miWest (270°)6.9 mph
10:15 PM-16.6 °F-22.0 °F76 %30.27 in10.0 miWSW (250°)3.5 mph
10:35 PM-16.6 °F-22.0 °F76 %30.27 in10.0 miSouth (190°)5.8 mph
10:55 PM-16.6 °F-22.0 °F76 %30.26 in10.0 miSSW (210°)4.6 mphClear
11:15 PM-16.6 °F-22.0 °F76 %30.25 in10.0 miSW (220°)4.6 mph
11:35 PM-18.4 °F-23.8 °F76 %30.26 in10.0 miWSW (240°)6.9 mph
11:55 PM-18.4 °F-25.6 °F70 %30.26 in10.0 miSW (230°)6.9 mph
Hourly data recorded from K2D5, located miles away from Fullerton, North Dakota







STORIES FROM OUR PARTNERS